TimeEDT,TemperatureF,Dew PointF,Humidity,Sea Level PressureIn,VisibilityMPH,Wind Direction,Wind SpeedMPH,Gust SpeedMPH,PrecipitationIn,Events,Conditions,WindDirDegrees,DateUTC
12:15 AM,47.8,45.7,92,30.17,10.0,Calm,Calm,-,N/A,,Clear,0,2013-06-20 04:15:00
12:35 AM,46.4,44.6,93,30.17,10.0,Calm,Calm,-,N/A,,Clear,0,2013-06-20 04:35:00
12:55 AM,46.6,45.1,95,30.18,10.0,Calm,Calm,-,N/A,,Clear,0,2013-06-20 04:55:00
1:15 AM,45.5,44.1,95,30.18,10.0,Calm,Calm,-,N/A,,Clear,0,2013-06-20 05:15:00
1:35 AM,44.8,43.5,95,30.19,10.0,Calm,Calm,-,N/A,,Clear,0,2013-06-20 05:35:00
1:55 AM,44.6,43.7,97,30.19,10.0,Calm,Calm,-,N/A,,Clear,0,2013-06-20 05:55:00
2:15 AM,44.1,43.2,97,30.20,10.0,Calm,Calm,-,N/A,,Clear,0,2013-06-20 06:15:00
2:35 AM,43.5,42.8,97,30.21,10.0,Calm,Calm,-,N/A,,Clear,0,2013-06-20 06:35:00
2:55 AM,42.6,41.9,97,30.21,1.8,Calm,Calm,-,N/A,,Mist,0,2013-06-20 06:55:00
3:15 AM,42.1,41.5,98,30.21,4.0,Calm,Calm,-,N/A,,Clear,0,2013-06-20 07:15:00
3:35 AM,42.1,41.5,98,30.21,4.0,Calm,Calm,-,N/A,,Clear,0,2013-06-20 07:35:00
3:55 AM,41.5,41.0,98,30.22,1.5,Calm,Calm,-,N/A,,Mist,0,2013-06-20 07:55:00
4:15 AM,41.0,40.5,98,30.22,7.0,Calm,Calm,-,N/A,,Clear,0,2013-06-20 08:15:00
4:35 AM,40.5,40.1,99,30.23,4.0,Calm,Calm,-,N/A,,Clear,0,2013-06-20 08:35:00
4:55 AM,40.3,39.9,99,30.24,1.5,Calm,Calm,-,N/A,,Mist,0,2013-06-20 08:55:00
5:15 AM,40.1,39.7,99,30.24,4.0,Calm,Calm,-,N/A,,Clear,0,2013-06-20 09:15:00
5:35 AM,39.4,39.2,99,30.25,4.0,Calm,Calm,-,N/A,,Clear,0,2013-06-20 09:35:00
5:55 AM,40.1,39.6,98,30.26,10.0,Calm,Calm,-,N/A,,Clear,0,2013-06-20 09:55:00
6:15 AM,41.2,41.0,99,30.26,10.0,Calm,Calm,-,N/A,,Clear,0,2013-06-20 10:15:00
6:35 AM,42.8,42.4,99,30.27,10.0,Calm,Calm,-,N/A,,Clear,0,2013-06-20 10:35:00
6:55 AM,44.6,43.9,97,30.27,10.0,Calm,Calm,-,N/A,,Clear,0,2013-06-20 10:55:00
7:15 AM,46.4,45.1,95,30.27,10.0,Calm,Calm,-,N/A,,Clear,0,2013-06-20 11:15:00
7:35 AM,48.2,45.0,89,30.28,10.0,Calm,Calm,-,N/A,,Clear,0,2013-06-20 11:35:00
7:55 AM,49.5,45.1,85,30.28,10.0,Calm,Calm,-,N/A,,Clear,0,2013-06-20 11:55:00
8:15 AM,51.3,45.5,81,30.28,10.0,Calm,Calm,-,N/A,,Clear,0,2013-06-20 12:15:00
8:35 AM,53.6,45.7,75,30.28,10.0,Calm,Calm,-,N/A,,Clear,0,2013-06-20 12:35:00
8:55 AM,56.1,46.6,70,30.28,10.0,Calm,Calm,-,N/A,,Clear,0,2013-06-20 12:55:00
9:15 AM,58.3,46.8,66,30.27,10.0,Calm,Calm,-,N/A,,Clear,0,2013-06-20 13:15:00
9:35 AM,60.4,46.8,61,30.26,10.0,Calm,Calm,-,N/A,,Clear,0,2013-06-20 13:35:00
9:55 AM,62.4,46.8,57,30.26,10.0,Calm,Calm,-,N/A,,Clear,0,2013-06-20 13:55:00
10:15 AM,64.9,43.9,46,30.25,10.0,Calm,Calm,-,N/A,,Clear,0,2013-06-20 14:15:00
10:35 AM,67.3,43.7,42,30.25,10.0,Calm,Calm,-,N/A,,Clear,0,2013-06-20 14:35:00
10:55 AM,67.8,44.1,42,30.25,10.0,Calm,Calm,-,N/A,,Clear,0,2013-06-20 14:55:00
11:15 AM,68.4,44.6,42,30.25,10.0,East,3.5,-,N/A,,Clear,90,2013-06-20 15:15:00
11:35 AM,69.8,45.1,41,30.24,10.0,Calm,Calm,-,N/A,,Clear,0,2013-06-20 15:35:00
11:55 AM,70.5,45.5,41,30.23,10.0,East,5.8,-,N/A,,Clear,90,2013-06-20 15:55:00
12:15 PM,71.4,46.0,40,30.23,10.0,NE,4.6,-,N/A,,Scattered Clouds,50,2013-06-20 16:15:00
12:35 PM,71.4,43.7,37,30.23,10.0,Calm,Calm,-,N/A,,Scattered Clouds,0,2013-06-20 16:35:00
12:55 PM,72.5,40.8,32,30.24,10.0,West,5.8,-,N/A,,Scattered Clouds,260,2013-06-20 16:55:00
1:15 PM,73.6,41.7,32,30.23,10.0,West,8.1,-,N/A,,Clear,280,2013-06-20 17:15:00
1:35 PM,73.2,39.2,29,30.23,10.0,West,8.1,-,N/A,,Clear,270,2013-06-20 17:35:00
1:55 PM,74.5,41.2,30,30.22,10.0,SSW,5.8,-,N/A,,Clear,210,2013-06-20 17:55:00
2:15 PM,75.2,43.2,32,30.21,10.0,NW,5.8,-,N/A,,Clear,320,2013-06-20 18:15:00
2:35 PM,74.8,43.3,32,30.21,10.0,SE,4.6,-,N/A,,Scattered Clouds,130,2013-06-20 18:35:00
2:55 PM,75.7,42.8,31,30.20,10.0,SSE,6.9,-,N/A,,Scattered Clouds,150,2013-06-20 18:55:00
3:15 PM,76.3,41.2,28,30.20,10.0,Calm,Calm,-,N/A,,Scattered Clouds,0,2013-06-20 19:15:00
3:35 PM,76.8,41.2,28,30.20,10.0,Calm,Calm,-,N/A,,Scattered Clouds,0,2013-06-20 19:35:00
3:55 PM,77.5,39.2,25,30.20,10.0,West,3.5,-,N/A,,Scattered Clouds,270,2013-06-20 19:55:00
4:15 PM,76.6,38.5,25,30.18,10.0,NNW,3.5,-,N/A,,Clear,330,2013-06-20 20:15:00
4:35 PM,77.0,39.6,26,30.18,10.0,WNW,6.9,-,N/A,,Clear,300,2013-06-20 20:35:00
4:55 PM,77.4,40.1,26,30.18,10.0,SW,6.9,-,N/A,,Clear,220,2013-06-20 20:55:00
5:15 PM,77.5,40.5,26,30.18,10.0,WSW,3.5,-,N/A,,Clear,240,2013-06-20 21:15:00
5:35 PM,75.7,41.4,29,30.18,10.0,West,5.8,-,N/A,,Clear,280,2013-06-20 21:35:00
5:55 PM,77.5,43.0,29,30.17,10.0,WNW,3.5,-,N/A,,Clear,290,2013-06-20 21:55:00
6:15 PM,77.4,42.3,29,30.17,10.0,SW,3.5,-,N/A,,Scattered Clouds,220,2013-06-20 22:15:00
6:35 PM,77.0,41.9,28,30.17,10.0,West,6.9,-,N/A,,Scattered Clouds,260,2013-06-20 22:35:00
6:55 PM,76.3,44.1,32,30.17,10.0,Calm,Calm,-,N/A,,Scattered Clouds,0,2013-06-20 22:55:00
7:15 PM,75.7,42.6,31,30.17,10.0,WSW,4.6,-,N/A,,Clear,250,2013-06-20 23:15:00
7:35 PM,74.8,44.1,33,30.17,10.0,Calm,Calm,-,N/A,,Clear,0,2013-06-20 23:35:00
7:55 PM,71.8,49.1,45,30.18,10.0,Calm,Calm,-,N/A,,Clear,0,2013-06-20 23:55:00
8:15 PM,68.5,50.7,53,30.18,10.0,Calm,Calm,-,N/A,,Clear,0,2013-06-21 00:15:00
8:35 PM,64.2,53.6,68,30.18,10.0,Calm,Calm,-,N/A,,Clear,0,2013-06-21 00:35:00
8:55 PM,61.2,53.8,77,30.19,10.0,Calm,Calm,-,N/A,,Clear,0,2013-06-21 00:55:00
9:15 PM,59.2,52.9,80,30.20,10.0,Calm,Calm,-,N/A,,Clear,0,2013-06-21 01:15:00
9:35 PM,56.8,52.0,84,30.21,10.0,Calm,Calm,-,N/A,,Clear,0,2013-06-21 01:35:00
9:55 PM,56.7,51.6,83,30.22,10.0,Calm,Calm,-,N/A,,Clear,0,2013-06-21 01:55:00
10:15 PM,55.2,51.8,88,30.22,10.0,Calm,Calm,-,N/A,,Clear,0,2013-06-21 02:15:00
10:35 PM,54.5,51.1,88,30.22,10.0,Calm,Calm,-,N/A,,Clear,0,2013-06-21 02:35:00
10:55 PM,53.6,50.7,90,30.22,10.0,Calm,Calm,-,N/A,,Clear,0,2013-06-21 02:55:00
11:15 PM,52.9,50.5,92,30.22,10.0,Calm,Calm,-,N/A,,Clear,0,2013-06-21 03:15:00
11:35 PM,52.3,50.4,93,30.23,10.0,Calm,Calm,-,N/A,,Clear,0,2013-06-21 03:35:00
11:55 PM,51.4,49.5,93,30.22,10.0,Calm,Calm,-,N/A,,Clear,0,2013-06-21 03:55:00